Location: Newark
(51.3000°N, 178.2000°W)
Time: 02:17:29
(UTC+00:00)

Tiangong - Pass Details

Date: 24 June 2021
Orbit: 373 x 386 km, 41.5° (Epoch: 02 August)

Event Time Altitude Azimuth Distance (km) Brightness Sun altitude
Exits shadow 14:14:28 11° 181° (S) 1,357 3.3 -9.3°
Maximum altitude 14:15:14 11° 166° (SSE) 1,319 3.4 -9.2°
Drops below altitude 10° 14:16:15 10° 147° (SSE) 1,390 3.6 -9.1°
Sets 14:19:30 0° 111° (ESE) 2,249 5.1 -8.9°
